Regional Weather Roundup
Issued by NWS

Home | Current Version | Previous Version | Text Only | Print | Product List | Glossary On
Versions: 1 2 3 4 5 6 7 8 9 10 11 12 13 14 15 16 17 18 19 20 21 22 23 24 25 26 27 28 29 30 31 32 33 34 35 36 37 38 39 40 41 42 43 44 45 46 47 48 49 50
412
ASUS44 KJAN 010103
RWRMS

MISSISSIPPI HOURLY WEATHER ROUNDUP
NATIONAL WEATHER SERVICE JACKSON MS
800 PM CDT SUN AUG 31 2014

NOTE: "FAIR: INDICATES FEW OR NO CLOUDS BELOW 12,000 FEET WITH NO
SIGNIFICANT WEATHER AND/OR OBSTRUCTIONS TO VISIBILITY.

MSZ001>002-007>008-010>013-018>021-025>028-034>036-010200-
NORTHWEST MISSISSIPPI

CITY           SKY/WX    TMP DP  RH WIND       PRES   REMARKS
CLARKSDALE     MOCLDY    81  77  89 CALM      30.02S
CLEVELAND      MOCLDY    80  77  90 S5        30.00S
GREENWOOD      CLOUDY    80  76  87 CALM      30.03R
GREENVILLE     MOCLDY    81  75  82 S6        30.00S
GRENADA        FAIR      79  73  83 S3        30.03S
OLIVE BRANCH   PTCLDY    75  75 100 S7        30.02R
OXFORD         FAIR      77  72  83 CALM      30.05S
TUNICA         CLEAR     77  73  88 S7        30.01S
$$

MSZ003>006-009-014>017-022>024-029>033-037>039-010200-
NORTHEAST MISSISSIPPI

CITY           SKY/WX    TMP DP  RH WIND       PRES   REMARKS
BELMONT        FAIR      78  75  91 CALM      30.06R
COLUMBUS AFB   CLOUDY    79  73  81 NW1       30.05S
CORINTH        FAIR      77  72  83 S5        30.03S
GOLDN TRIANGLE PTCLDY    81  72  74 SE6       30.06R
STARKVILLE     FAIR      79  75  89 CALM      30.05S
TUPELO         MOCLDY    80  74  81 S6        30.04R
$$

MSZ040-058-010200-
CENTRAL MISSISSIPPI

CITY           SKY/WX    TMP DP  RH WIND       PRES   REMARKS
JACKSON INTL   CLOUDY    80  77  90 CALM      30.04S
JACKSON HAWKNS CLOUDY    82  75  79 SE3       30.04S
MERIDIAN KEY   CLOUDY    84  74  71 E3        30.06R HX  91
MERIDIAN NAS   MOCLDY    80  76  87 CALM      30.06R
RAYMOND        FAIR      81  75  83 CALM      30.03F
VICKSBURG      MOCLDY    79  76  90 CALM      30.02S
$$

MSZ059>079-010200-
SOUTH MISSISSIPPI

CITY           SKY/WX    TMP DP  RH WIND       PRES   REMARKS
BROOKHAVEN     FAIR      81  75  83 CALM      30.07R
HATTIESBURG    MOCLDY    84  72  67 S6        30.06R
MCCOMB         PTCLDY    80  72  76 S3        30.05S
NATCHEZ        MOCLDY    81  75  83 CALM      30.03S
PINE BELT      MOCLDY    82  68  61 SW5       30.07S
$$

MSZ080>082-010200-
COASTAL MISSISSIPPI

CITY           SKY/WX    TMP DP  RH WIND       PRES   REMARKS
BAY ST LOUIS   CLEAR    N/A N/A N/A SE5       30.05S
BILOXI         PTCLDY    85  76  74 S8        30.06S HX  93
PASCAGOULA     CLEAR     80  76  87 CALM      30.07R
GULFPORT       PTCLDY    84  76  76 S6        30.05S HX  93
$$



USA.gov is the U.S. government's official web portal to all federal, state and local government web resources and services.